Tracking 19831 objects as of 23-Aug-2019
HD Live streaming from Space Station
objects crossing your sky now

DELTA 2 R/B(1)

Track DELTA 2 R/B(1) now!
10-day predictions


NORAD ID: 22015
Int'l Code: 1992-039B
Perigee: 484.5 km
Apogee: 550.9 km
Inclination: 20.7 °
Period: 94.8 minutes
Semi major axis: 6888 km
RCS: 9.3859 m2 (large)
Launch date: July 7, 1992
Source: United States (US)
Launch site: AIR FORCE EASTERN TEST RANGE (AFETR)

Note: This is a ROCKET BODY
aabbcc
Your satellite tracking list
Your tracking list is empty




NASA's NSSDC Master Catalog

Two Line Element Set (TLE):
1 22015U 92039B   19234.71798795  .00001139  00000-0  27112-4 0  9996
2 22015  20.7154  35.9381 0048166 120.0444 240.4784 15.18439761511865
Source of the keplerian elements: AFSPC